owner,sensor,date,latitude,longitude,vertical_datum,wind_speed,wind_to_direction,wind_speed_of_gust,qcFlag 
DISL,ioos:station:DISL:DISL:1,2013-09-01T00:00:00Z,30.2513,-88.0778,9.68,1.54,296.6,-9999.0,'1111122,1111122,1111122' 
DISL,ioos:station:DISL:DISL:1,2013-09-01T00:30:00Z,30.2513,-88.0778,9.68,1.36,250.1,-9999.0,'1111122,1111122,1111122' 
DISL,ioos:station:DISL:DISL:1,2013-09-01T01:00:00Z,30.2513,-88.0778,9.68,1.38,282.6,-9999.0,'1111122,1111122,1111122' 
DISL,ioos:station:DISL:DISL:1,2013-09-01T01:30:00Z,30.2513,-88.0778,9.68,2.09,289.4,-9999.0,'1111122,1111122,1111122' 
DISL,ioos:station:DISL:DISL:1,2013-09-01T02:00:00Z,30.2513,-88.0778,9.68,1.86,276.7,-9999.0,'1111122,1111122,1111122' 
DISL,ioos:station:DISL:DISL:1,2013-09-01T02:30:00Z,30.2513,-88.0778,9.68,1.93,273.4,-9999.0,'1111122,1111122,1111122' 
DISL,ioos:station:DISL:DISL:1,2013-09-01T03:00:00Z,30.2513,-88.0778,9.68,1.41,268.5,-9999.0,'1111122,1111122,1111122' 
DISL,ioos:station:DISL:DISL:1,2013-09-01T03:30:00Z,30.2513,-88.0778,9.68,1.49,278.3,-9999.0,'1111122,1111122,1111122' 
DISL,ioos:station:DISL:DISL:1,2013-09-01T04:00:00Z,30.2513,-88.0778,9.68,1.13,285.1,-9999.0,'1111122,1111122,1111122' 
DISL,ioos:station:DISL:DISL:1,2013-09-01T04:30:00Z,30.2513,-88.0778,9.68,1.54,256.1,-9999.0,'1111122,1111122,1111122' 
DISL,ioos:station:DISL:DISL:1,2013-09-01T05:00:00Z,30.2513,-88.0778,9.68,1.7,257.7,-9999.0,'1111122,1111122,1111122' 
DISL,ioos:station:DISL:DISL:1,2013-09-01T05:30:00Z,30.2513,-88.0778,9.68,1.84,257.0,-9999.0,'1111122,1111122,1111122' 
DISL,ioos:station:DISL:DISL:1,2013-09-01T06:00:00Z,30.2513,-88.0778,9.68,1.97,259.9,-9999.0,'1111122,1111122,1111122' 
DISL,ioos:station:DISL:DISL:1,2013-09-01T06:30:00Z,30.2513,-88.0778,9.68,2.51,263.4,-9999.0,'1111122,1111122,1111122' 
DISL,ioos:station:DISL:DISL:1,2013-09-01T07:00:00Z,30.2513,-88.0778,9.68,2.11,276.6,-9999.0,'1111122,1111122,1111122' 
DISL,ioos:station:DISL:DISL:1,2013-09-01T07:30:00Z,30.2513,-88.0778,9.68,1.99,277.1,-9999.0,'1111122,1111122,1111122' 
DISL,ioos:station:DISL:DISL:1,2013-09-01T08:00:00Z,30.2513,-88.0778,9.68,1.99,284.7,-9999.0,'1111122,1111122,1111122' 
DISL,ioos:station:DISL:DISL:1,2013-09-01T08:30:00Z,30.2513,-88.0778,9.68,2.22,286.1,-9999.0,'1111122,1111122,1111122' 
DISL,ioos:station:DISL:DISL:1,2013-09-01T09:00:00Z,30.2513,-88.0778,9.68,2.4,284.8,-9999.0,'1111122,1111122,1111122' 
DISL,ioos:station:DISL:DISL:1,2013-09-01T09:30:00Z,30.2513,-88.0778,9.68,2.55,279.8,-9999.0,'1111122,1111122,1111122' 
DISL,ioos:station:DISL:DISL:1,2013-09-01T10:00:00Z,30.2513,-88.0778,9.68,3.06,291.4,-9999.0,'1111122,1111122,1111122' 
DISL,ioos:station:DISL:DISL:1,2013-09-01T10:30:00Z,30.2513,-88.0778,9.68,2.86,287.9,-9999.0,'1111122,1111122,1111122' 
DISL,ioos:station:DISL:DISL:1,2013-09-01T11:00:00Z,30.2513,-88.0778,9.68,3.51,304.3,-9999.0,'1111122,1111122,1111122' 
DISL,ioos:station:DISL:DISL:1,2013-09-01T11:30:00Z,30.2513,-88.0778,9.68,2.05,312.3,-9999.0,'1111122,1111122,1111122' 
DISL,ioos:station:DISL:DISL:1,2013-09-01T12:00:00Z,30.2513,-88.0778,9.68,1.66,288.9,-9999.0,'1111122,1111122,1111122' 
DISL,ioos:station:DISL:DISL:1,2013-09-01T12:30:00Z,30.2513,-88.0778,9.68,1.16,302.1,-9999.0,'1111122,1111122,1111122' 
DISL,ioos:station:DISL:DISL:1,2013-09-01T13:00:00Z,30.2513,-88.0778,9.68,1.74,302.5,-9999.0,'1111122,1111122,1111122' 
DISL,ioos:station:DISL:DISL:1,2013-09-01T13:30:00Z,30.2513,-88.0778,9.68,2.26,299.8,-9999.0,'1111122,1111122,1111122' 
DISL,ioos:station:DISL:DISL:1,2013-09-01T14:00:00Z,30.2513,-88.0778,9.68,2.15,295.5,-9999.0,'1111122,1111122,1111122' 
DISL,ioos:station:DISL:DISL:1,2013-09-01T14:30:00Z,30.2513,-88.0778,9.68,2.54,297.3,-9999.0,'1111122,1111122,1111122' 
DISL,ioos:station:DISL:DISL:1,2013-09-01T15:00:00Z,30.2513,-88.0778,9.68,2.93,298.9,-9999.0,'1111122,1111122,1111122' 
DISL,ioos:station:DISL:DISL:1,2013-09-01T15:30:00Z,30.2513,-88.0778,9.68,5.33,313.0,-9999.0,'1111122,1111122,1111122' 
DISL,ioos:station:DISL:DISL:1,2013-09-01T16:00:00Z,30.2513,-88.0778,9.68,5.26,314.6,-9999.0,'1111122,1111122,1111122' 
DISL,ioos:station:DISL:DISL:1,2013-09-01T16:30:00Z,30.2513,-88.0778,9.68,4.52,314.5,-9999.0,'1111122,1111122,1111122' 
DISL,ioos:station:DISL:DISL:1,2013-09-01T17:00:00Z,30.2513,-88.0778,9.68,2.98,255.3,-9999.0,'1111122,1111122,1111122' 
DISL,ioos:station:DISL:DISL:1,2013-09-01T17:30:00Z,30.2513,-88.0778,9.68,3.6,284.3,-9999.0,'1111122,1111122,1111122' 
DISL,ioos:station:DISL:DISL:1,2013-09-01T18:00:00Z,30.2513,-88.0778,9.68,3.96,305.9,-9999.0,'1111122,1111122,1111122' 
DISL,ioos:station:DISL:DISL:1,2013-09-01T18:30:00Z,30.2513,-88.0778,9.68,2.6,278.3,-9999.0,'1111122,1111122,1111122' 
DISL,ioos:station:DISL:DISL:1,2013-09-01T19:00:00Z,30.2513,-88.0778,9.68,3.95,283.8,-9999.0,'1111122,1111122,1111122' 
DISL,ioos:station:DISL:DISL:1,2013-09-01T19:30:00Z,30.2513,-88.0778,9.68,3.29,255.1,-9999.0,'1111122,1111122,1111122' 
DISL,ioos:station:DISL:DISL:1,2013-09-01T20:00:00Z,30.2513,-88.0778,9.68,3.05,236.4,-9999.0,'1111122,1111122,1111122' 
DISL,ioos:station:DISL:DISL:1,2013-09-01T20:30:00Z,30.2513,-88.0778,9.68,3.17,250.4,-9999.0,'1111122,1111122,1111122' 
DISL,ioos:station:DISL:DISL:1,2013-09-01T21:00:00Z,30.2513,-88.0778,9.68,3.05,251.4,-9999.0,'1111122,1111122,1111122' 
DISL,ioos:station:DISL:DISL:1,2013-09-01T21:30:00Z,30.2513,-88.0778,9.68,3.03,248.8,-9999.0,'1111122,1111122,1111122' 
DISL,ioos:station:DISL:DISL:1,2013-09-01T22:00:00Z,30.2513,-88.0778,9.68,2.69,251.0,-9999.0,'1111122,1111122,1111122' 
DISL,ioos:station:DISL:DISL:1,2013-09-01T22:30:00Z,30.2513,-88.0778,9.68,2.82,250.0,-9999.0,'1111122,1111122,1111122' 
DISL,ioos:station:DISL:DISL:1,2013-09-01T23:00:00Z,30.2513,-88.0778,9.68,2.36,245.9,-9999.0,'1111122,1111122,1111122' 
DISL,ioos:station:DISL:DISL:1,2013-09-01T23:30:00Z,30.2513,-88.0778,9.68,2.26,234.5,-9999.0,'1111122,1111122,1111122' 
DISL,ioos:station:DISL:DISL:1,2013-09-02T00:00:00Z,30.2513,-88.0778,9.68,1.72,244.5,-9999.0,'1111122,1111122,1111122' 
DISL,ioos:station:DISL:DISL:1,2013-09-02T00:30:00Z,30.2513,-88.0778,9.68,1.89,233.3,-9999.0,'1111122,1111122,1111122' 
DISL,ioos:station:DISL:DISL:1,2013-09-02T01:00:00Z,30.2513,-88.0778,9.68,1.25,261.5,-9999.0,'1111122,1111122,1111122' 
DISL,ioos:station:DISL:DISL:1,2013-09-02T01:30:00Z,30.2513,-88.0778,9.68,1.24,267.0,-9999.0,'1111122,1111122,1111122' 
DISL,ioos:station:DISL:DISL:1,2013-09-02T02:00:00Z,30.2513,-88.0778,9.68,1.16,285.0,-9999.0,'1111122,1111122,1111122' 
DISL,ioos:station:DISL:DISL:1,2013-09-02T02:30:00Z,30.2513,-88.0778,9.68,1.16,254.6,-9999.0,'1111122,1111122,1111122' 
DISL,ioos:station:DISL:DISL:1,2013-09-02T03:00:00Z,30.2513,-88.0778,9.68,1.24,280.0,-9999.0,'1111122,1111122,1111122' 
DISL,ioos:station:DISL:DISL:1,2013-09-02T03:30:00Z,30.2513,-88.0778,9.68,1.61,266.1,-9999.0,'1111122,1111122,1111122' 
DISL,ioos:station:DISL:DISL:1,2013-09-02T04:00:00Z,30.2513,-88.0778,9.68,1.74,267.0,-9999.0,'1111122,1111122,1111122' 
DISL,ioos:station:DISL:DISL:1,2013-09-02T04:30:00Z,30.2513,-88.0778,9.68,2.08,247.6,-9999.0,'1111122,1111122,1111122' 
DISL,ioos:station:DISL:DISL:1,2013-09-02T05:00:00Z,30.2513,-88.0778,9.68,2.31,242.4,-9999.0,'1111122,1111122,1111122' 
DISL,ioos:station:DISL:DISL:1,2013-09-02T05:30:00Z,30.2513,-88.0778,9.68,3.02,221.4,-9999.0,'1111122,1111122,1111122' 
DISL,ioos:station:DISL:DISL:1,2013-09-02T06:00:00Z,30.2513,-88.0778,9.68,2.7,232.1,-9999.0,'1111122,1111122,1111122' 
DISL,ioos:station:DISL:DISL:1,2013-09-02T06:30:00Z,30.2513,-88.0778,9.68,2.91,232.9,-9999.0,'1111122,1111122,1111122' 
DISL,ioos:station:DISL:DISL:1,2013-09-02T07:00:00Z,30.2513,-88.0778,9.68,3.11,218.8,-9999.0,'1111122,1111122,1111122' 
DISL,ioos:station:DISL:DISL:1,2013-09-02T07:30:00Z,30.2513,-88.0778,9.68,2.75,225.3,-9999.0,'1111122,1111122,1111122' 
DISL,ioos:station:DISL:DISL:1,2013-09-02T08:00:00Z,30.2513,-88.0778,9.68,2.68,262.2,-9999.0,'1111122,1111122,1111122' 
DISL,ioos:station:DISL:DISL:1,2013-09-02T08:30:00Z,30.2513,-88.0778,9.68,2.41,269.7,-9999.0,'1111122,1111122,1111122' 
DISL,ioos:station:DISL:DISL:1,2013-09-02T09:00:00Z,30.2513,-88.0778,9.68,1.88,282.6,-9999.0,'1111122,1111122,1111122' 
DISL,ioos:station:DISL:DISL:1,2013-09-02T09:30:00Z,30.2513,-88.0778,9.68,2.09,266.2,-9999.0,'1111122,1111122,1111122' 
DISL,ioos:station:DISL:DISL:1,2013-09-02T10:00:00Z,30.2513,-88.0778,9.68,2.31,286.9,-9999.0,'1111122,1111122,1111122' 
DISL,ioos:station:DISL:DISL:1,2013-09-02T10:30:00Z,30.2513,-88.0778,9.68,1.99,282.4,-9999.0,'1111122,1111122,1111122' 
DISL,ioos:station:DISL:DISL:1,2013-09-02T11:00:00Z,30.2513,-88.0778,9.68,1.74,271.4,-9999.0,'1111122,1111122,1111122' 
DISL,ioos:station:DISL:DISL:1,2013-09-02T11:30:00Z,30.2513,-88.0778,9.68,1.85,269.6,-9999.0,'1111122,1111122,1111122' 
DISL,ioos:station:DISL:DISL:1,2013-09-02T12:00:00Z,30.2513,-88.0778,9.68,1.86,286.1,-9999.0,'1111122,1111122,1111122' 
DISL,ioos:station:DISL:DISL:1,2013-09-02T12:30:00Z,30.2513,-88.0778,9.68,2.53,289.0,-9999.0,'1111122,1111122,1111122' 
DISL,ioos:station:DISL:DISL:1,2013-09-02T13:00:00Z,30.2513,-88.0778,9.68,2.32,287.3,-9999.0,'1111122,1111122,1111122' 
DISL,ioos:station:DISL:DISL:1,2013-09-02T13:30:00Z,30.2513,-88.0778,9.68,4.2,303.2,-9999.0,'1111122,1111122,1111122' 
DISL,ioos:station:DISL:DISL:1,2013-09-02T14:00:00Z,30.2513,-88.0778,9.68,5.32,322.2,-9999.0,'1111122,1111122,1111122' 
DISL,ioos:station:DISL:DISL:1,2013-09-02T14:30:00Z,30.2513,-88.0778,9.68,5.15,311.9,-9999.0,'1111122,1111122,1111122' 
DISL,ioos:station:DISL:DISL:1,2013-09-02T15:00:00Z,30.2513,-88.0778,9.68,3.9,317.6,-9999.0,'1111122,1111122,1111122' 
DISL,ioos:station:DISL:DISL:1,2013-09-02T15:30:00Z,30.2513,-88.0778,9.68,1.77,287.9,-9999.0,'1111122,1111122,1111122' 
DISL,ioos:station:DISL:DISL:1,2013-09-02T16:00:00Z,30.2513,-88.0778,9.68,2.37,197.9,-9999.0,'1111122,1111122,1111122' 
DISL,ioos:station:DISL:DISL:1,2013-09-02T16:30:00Z,30.2513,-88.0778,9.68,2.28,222.6,-9999.0,'1111122,1111122,1111122' 
DISL,ioos:station:DISL:DISL:1,2013-09-02T17:00:00Z,30.2513,-88.0778,9.68,2.21,205.2,-9999.0,'1111122,1111122,1111122' 
DISL,ioos:station:DISL:DISL:1,2013-09-02T17:30:00Z,30.2513,-88.0778,9.68,1.94,268.3,-9999.0,'1111122,1111122,1111122' 
DISL,ioos:station:DISL:DISL:1,2013-09-02T18:00:00Z,30.2513,-88.0778,9.68,2.9,253.7,-9999.0,'1111122,1111122,1111122' 
DISL,ioos:station:DISL:DISL:1,2013-09-02T18:30:00Z,30.2513,-88.0778,9.68,3.31,281.2,-9999.0,'1111122,1111122,1111122' 
DISL,ioos:station:DISL:DISL:1,2013-09-02T19:00:00Z,30.2513,-88.0778,9.68,3.4,235.5,-9999.0,'1111122,1111122,1111122' 
DISL,ioos:station:DISL:DISL:1,2013-09-02T19:30:00Z,30.2513,-88.0778,9.68,2.69,261.9,-9999.0,'1111122,1111122,1111122' 
DISL,ioos:station:DISL:DISL:1,2013-09-02T20:00:00Z,30.2513,-88.0778,9.68,2.72,270.8,-9999.0,'1111122,1111122,1111122' 
DISL,ioos:station:DISL:DISL:1,2013-09-02T20:30:00Z,30.2513,-88.0778,9.68,3.8,242.6,-9999.0,'1111122,1111122,1111122' 
DISL,ioos:station:DISL:DISL:1,2013-09-02T21:00:00Z,30.2513,-88.0778,9.68,2.81,258.8,-9999.0,'1111122,1111122,1111122' 
DISL,ioos:station:DISL:DISL:1,2013-09-02T21:30:00Z,30.2513,-88.0778,9.68,2.95,240.1,-9999.0,'1111122,1111122,1111122' 
DISL,ioos:station:DISL:DISL:1,2013-09-02T22:00:00Z,30.2513,-88.0778,9.68,3.16,229.3,-9999.0,'1111122,1111122,1111122' 
DISL,ioos:station:DISL:DISL:1,2013-09-02T22:30:00Z,30.2513,-88.0778,9.68,2.33,203.2,-9999.0,'1111122,1111122,1111122' 
DISL,ioos:station:DISL:DISL:1,2013-09-02T23:00:00Z,30.2513,-88.0778,9.68,2.25,213.2,-9999.0,'1111122,1111122,1111122' 
DISL,ioos:station:DISL:DISL:1,2013-09-02T23:30:00Z,30.2513,-88.0778,9.68,2.16,211.7,-9999.0,'1111122,1111122,1111122' 
DISL,ioos:station:DISL:DISL:1,2013-09-03T00:00:00Z,30.2513,-88.0778,9.68,2.62,204.1,-9999.0,'1111122,1111122,1111122' 
DISL,ioos:station:DISL:DISL:1,2013-09-03T00:30:00Z,30.2513,-88.0778,9.68,2.82,199.6,-9999.0,'1111122,1111122,1111122' 
DISL,ioos:station:DISL:DISL:1,2013-09-03T01:00:00Z,30.2513,-88.0778,9.68,3.06,200.4,-9999.0,'1111122,1111122,1111122' 
DISL,ioos:station:DISL:DISL:1,2013-09-03T01:30:00Z,30.2513,-88.0778,9.68,3.13,203.2,-9999.0,'1111122,1111122,1111122' 
DISL,ioos:station:DISL:DISL:1,2013-09-03T02:00:00Z,30.2513,-88.0778,9.68,2.21,231.0,-9999.0,'1111122,1111122,1111122' 
DISL,ioos:station:DISL:DISL:1,2013-09-03T02:30:00Z,30.2513,-88.0778,9.68,2.03,222.7,-9999.0,'1111122,1111122,1111122' 
DISL,ioos:station:DISL:DISL:1,2013-09-03T03:00:00Z,30.2513,-88.0778,9.68,2.5,242.6,-9999.0,'1111122,1111122,1111122' 
DISL,ioos:station:DISL:DISL:1,2013-09-03T03:30:00Z,30.2513,-88.0778,9.68,2.54,226.0,-9999.0,'1111122,1111122,1111122' 
DISL,ioos:station:DISL:DISL:1,2013-09-03T04:00:00Z,30.2513,-88.0778,9.68,2.46,226.3,-9999.0,'1111122,1111122,1111122' 
DISL,ioos:station:DISL:DISL:1,2013-09-03T04:30:00Z,30.2513,-88.0778,9.68,1.8,232.3,-9999.0,'1111122,1111122,1111122' 
DISL,ioos:station:DISL:DISL:1,2013-09-03T05:00:00Z,30.2513,-88.0778,9.68,1.99,236.1,-9999.0,'1111122,1111122,1111122' 
DISL,ioos:station:DISL:DISL:1,2013-09-03T05:30:00Z,30.2513,-88.0778,9.68,2.57,234.5,-9999.0,'1111122,1111122,1111122' 
DISL,ioos:station:DISL:DISL:1,2013-09-03T06:00:00Z,30.2513,-88.0778,9.68,2.27,245.6,-9999.0,'1111122,1111122,1111122' 
DISL,ioos:station:DISL:DISL:1,2013-09-03T06:30:00Z,30.2513,-88.0778,9.68,2.06,231.8,-9999.0,'1111122,1111122,1111122' 
DISL,ioos:station:DISL:DISL:1,2013-09-03T07:00:00Z,30.2513,-88.0778,9.68,2.14,243.1,-9999.0,'1111122,1111122,1111122' 
DISL,ioos:station:DISL:DISL:1,2013-09-03T07:30:00Z,30.2513,-88.0778,9.68,2.33,229.8,-9999.0,'1111122,1111122,1111122' 
DISL,ioos:station:DISL:DISL:1,2013-09-03T08:00:00Z,30.2513,-88.0778,9.68,2.03,259.0,-9999.0,'1111122,1111122,1111122' 
DISL,ioos:station:DISL:DISL:1,2013-09-03T08:30:00Z,30.2513,-88.0778,9.68,2.79,270.9,-9999.0,'1111122,1111122,1111122' 
DISL,ioos:station:DISL:DISL:1,2013-09-03T09:00:00Z,30.2513,-88.0778,9.68,1.95,276.1,-9999.0,'1111122,1111122,1111122' 
DISL,ioos:station:DISL:DISL:1,2013-09-03T09:30:00Z,30.2513,-88.0778,9.68,1.78,273.9,-9999.0,'1111122,1111122,1111122' 
DISL,ioos:station:DISL:DISL:1,2013-09-03T10:00:00Z,30.2513,-88.0778,9.68,2.17,279.3,-9999.0,'1111122,1111122,1111122' 
DISL,ioos:station:DISL:DISL:1,2013-09-03T10:30:00Z,30.2513,-88.0778,9.68,1.88,276.0,-9999.0,'1111122,1111122,1111122' 
DISL,ioos:station:DISL:DISL:1,2013-09-03T11:00:00Z,30.2513,-88.0778,9.68,4.23,317.0,-9999.0,'1111122,1111122,1111122' 
DISL,ioos:station:DISL:DISL:1,2013-09-03T11:30:00Z,30.2513,-88.0778,9.68,3.3,304.3,-9999.0,'1111122,1111122,1111122' 
DISL,ioos:station:DISL:DISL:1,2013-09-03T12:00:00Z,30.2513,-88.0778,9.68,2.24,295.4,-9999.0,'1111122,1111122,1111122' 
DISL,ioos:station:DISL:DISL:1,2013-09-03T12:30:00Z,30.2513,-88.0778,9.68,3.7,305.5,-9999.0,'1111122,1111122,1111122' 
DISL,ioos:station:DISL:DISL:1,2013-09-03T13:00:00Z,30.2513,-88.0778,9.68,4.36,317.8,-9999.0,'1111122,1111122,1111122' 
DISL,ioos:station:DISL:DISL:1,2013-09-03T13:30:00Z,30.2513,-88.0778,9.68,3.9,303.4,-9999.0,'1111122,1111122,1111122' 
DISL,ioos:station:DISL:DISL:1,2013-09-03T14:00:00Z,30.2513,-88.0778,9.68,0.97,261.7,-9999.0,'1111122,1111122,1111122' 
DISL,ioos:station:DISL:DISL:1,2013-09-03T14:30:00Z,30.2513,-88.0778,9.68,0.57,310.7,-9999.0,'1111122,1111122,1111122' 
DISL,ioos:station:DISL:DISL:1,2013-09-03T15:00:00Z,30.2513,-88.0778,9.68,1.77,281.1,-9999.0,'1111122,1111122,1111122' 
DISL,ioos:station:DISL:DISL:1,2013-09-03T15:30:00Z,30.2513,-88.0778,9.68,2.68,318.2,-9999.0,'1111122,1111122,1111122' 
DISL,ioos:station:DISL:DISL:1,2013-09-03T16:00:00Z,30.2513,-88.0778,9.68,1.32,320.4,-9999.0,'1111122,1111122,1111122' 
DISL,ioos:station:DISL:DISL:1,2013-09-03T16:30:00Z,30.2513,-88.0778,9.68,2.29,205.5,-9999.0,'1111122,1111122,1111122' 
DISL,ioos:station:DISL:DISL:1,2013-09-03T17:00:00Z,30.2513,-88.0778,9.68,2.62,244.0,-9999.0,'1111122,1111122,1111122' 
DISL,ioos:station:DISL:DISL:1,2013-09-03T17:30:00Z,30.2513,-88.0778,9.68,3.23,227.2,-9999.0,'1111122,1111122,1111122' 
DISL,ioos:station:DISL:DISL:1,2013-09-03T18:00:00Z,30.2513,-88.0778,9.68,2.8,231.0,-9999.0,'1111122,1111122,1111122' 
DISL,ioos:station:DISL:DISL:1,2013-09-03T18:30:00Z,30.2513,-88.0778,9.68,3.37,228.1,-9999.0,'1111122,1111122,1111122' 
DISL,ioos:station:DISL:DISL:1,2013-09-03T19:00:00Z,30.2513,-88.0778,9.68,3.02,222.5,-9999.0,'1111122,1111122,1111122' 
DISL,ioos:station:DISL:DISL:1,2013-09-03T19:30:00Z,30.2513,-88.0778,9.68,3.65,234.7,-9999.0,'1111122,1111122,1111122' 
DISL,ioos:station:DISL:DISL:1,2013-09-03T20:00:00Z,30.2513,-88.0778,9.68,3.23,227.6,-9999.0,'1111122,1111122,1111122' 
DISL,ioos:station:DISL:DISL:1,2013-09-03T20:30:00Z,30.2513,-88.0778,9.68,3.19,236.8,-9999.0,'1111122,1111122,1111122' 
DISL,ioos:station:DISL:DISL:1,2013-09-03T21:00:00Z,30.2513,-88.0778,9.68,3.28,218.4,-9999.0,'1111122,1111122,1111122' 
DISL,ioos:station:DISL:DISL:1,2013-09-03T21:30:00Z,30.2513,-88.0778,9.68,2.63,218.0,-9999.0,'1111122,1111122,1111122' 
DISL,ioos:station:DISL:DISL:1,2013-09-03T22:00:00Z,30.2513,-88.0778,9.68,2.32,210.9,-9999.0,'1111122,1111122,1111122' 
DISL,ioos:station:DISL:DISL:1,2013-09-03T22:30:00Z,30.2513,-88.0778,9.68,2.44,201.0,-9999.0,'1111122,1111122,1111122' 
DISL,ioos:station:DISL:DISL:1,2013-09-03T23:00:00Z,30.2513,-88.0778,9.68,7.04,9.08,-9999.0,'1111122,1111122,1111122' 
DISL,ioos:station:DISL:DISL:1,2013-09-03T23:30:00Z,30.2513,-88.0778,9.68,9.23,7.499,-9999.0,'1111122,1111122,1111122' 
DISL,ioos:station:DISL:DISL:1,2013-09-04T00:00:00Z,30.2513,-88.0778,9.68,2.89,320.2,-9999.0,'1111122,1111122,1111122' 
DISL,ioos:station:DISL:DISL:1,2013-09-04T00:30:00Z,30.2513,-88.0778,9.68,1.32,268.9,-9999.0,'1111122,1111122,1111122' 
DISL,ioos:station:DISL:DISL:1,2013-09-04T01:00:00Z,30.2513,-88.0778,9.68,3.26,222.7,-9999.0,'1111122,1111122,1111122' 
DISL,ioos:station:DISL:DISL:1,2013-09-04T01:30:00Z,30.2513,-88.0778,9.68,1.73,180.2,-9999.0,'1111122,1111122,1111122' 
DISL,ioos:station:DISL:DISL:1,2013-09-04T02:00:00Z,30.2513,-88.0778,9.68,1.61,285.1,-9999.0,'1111122,1111122,1111122' 
DISL,ioos:station:DISL:DISL:1,2013-09-04T02:30:00Z,30.2513,-88.0778,9.68,2.17,302.2,-9999.0,'1111122,1111122,1111122' 
DISL,ioos:station:DISL:DISL:1,2013-09-04T03:00:00Z,30.2513,-88.0778,9.68,1.25,179.9,-9999.0,'1111122,1111122,1111122' 
DISL,ioos:station:DISL:DISL:1,2013-09-04T03:30:00Z,30.2513,-88.0778,9.68,3.06,195.7,-9999.0,'1111122,1111122,1111122' 
DISL,ioos:station:DISL:DISL:1,2013-09-04T04:00:00Z,30.2513,-88.0778,9.68,0.7,248.8,-9999.0,'1111122,1111122,1111122' 
DISL,ioos:station:DISL:DISL:1,2013-09-04T04:30:00Z,30.2513,-88.0778,9.68,0.97,290.7,-9999.0,'1111122,1111122,1111122' 
DISL,ioos:station:DISL:DISL:1,2013-09-04T05:00:00Z,30.2513,-88.0778,9.68,0.4,320.7,-9999.0,'1111122,1111122,1111122' 
DISL,ioos:station:DISL:DISL:1,2013-09-04T05:30:00Z,30.2513,-88.0778,9.68,0.69,328.8,-9999.0,'1111122,1111122,1111122' 
DISL,ioos:station:DISL:DISL:1,2013-09-04T06:00:00Z,30.2513,-88.0778,9.68,2.39,45.39,-9999.0,'1111122,1111122,1111122' 
DISL,ioos:station:DISL:DISL:1,2013-09-04T06:30:00Z,30.2513,-88.0778,9.68,1.49,41.98,-9999.0,'1111122,1111122,1111122' 
DISL,ioos:station:DISL:DISL:1,2013-09-04T07:00:00Z,30.2513,-88.0778,9.68,2.21,31.3,-9999.0,'1111122,1111122,1111122' 
DISL,ioos:station:DISL:DISL:1,2013-09-04T07:30:00Z,30.2513,-88.0778,9.68,1.56,60.95,-9999.0,'1111122,1111122,1111122' 
DISL,ioos:station:DISL:DISL:1,2013-09-04T08:00:00Z,30.2513,-88.0778,9.68,1.73,55.11,-9999.0,'1111122,1111122,1111122' 
DISL,ioos:station:DISL:DISL:1,2013-09-04T08:30:00Z,30.2513,-88.0778,9.68,2.94,60.07,-9999.0,'1111122,1111122,1111122' 
DISL,ioos:station:DISL:DISL:1,2013-09-04T09:00:00Z,30.2513,-88.0778,9.68,2.87,67.65,-9999.0,'1111122,1111122,1111122' 
DISL,ioos:station:DISL:DISL:1,2013-09-04T09:30:00Z,30.2513,-88.0778,9.68,2.77,70.7,-9999.0,'1111122,1111122,1111122' 
DISL,ioos:station:DISL:DISL:1,2013-09-04T10:00:00Z,30.2513,-88.0778,9.68,3.09,89.1,-9999.0,'1111122,1111122,1111122' 
DISL,ioos:station:DISL:DISL:1,2013-09-04T10:30:00Z,30.2513,-88.0778,9.68,2.67,99.2,-9999.0,'1111122,1111122,1111122' 
DISL,ioos:station:DISL:DISL:1,2013-09-04T11:00:00Z,30.2513,-88.0778,9.68,2.34,107.9,-9999.0,'1111122,1111122,1111122' 
DISL,ioos:station:DISL:DISL:1,2013-09-04T11:30:00Z,30.2513,-88.0778,9.68,2.34,108.5,-9999.0,'1111122,1111122,1111122' 
DISL,ioos:station:DISL:DISL:1,2013-09-04T12:00:00Z,30.2513,-88.0778,9.68,2.15,96.5,-9999.0,'1111122,1111122,1111122' 
DISL,ioos:station:DISL:DISL:1,2013-09-04T12:30:00Z,30.2513,-88.0778,9.68,2.93,117.7,-9999.0,'1111122,1111122,1111122' 
DISL,ioos:station:DISL:DISL:1,2013-09-04T13:00:00Z,30.2513,-88.0778,9.68,2.76,105.6,-9999.0,'1111122,1111122,1111122' 
DISL,ioos:station:DISL:DISL:1,2013-09-04T13:30:00Z,30.2513,-88.0778,9.68,2.67,113.3,-9999.0,'1111122,1111122,1111122' 
DISL,ioos:station:DISL:DISL:1,2013-09-04T14:00:00Z,30.2513,-88.0778,9.68,2.07,98.8,-9999.0,'1111122,1111122,1111122' 
DISL,ioos:station:DISL:DISL:1,2013-09-04T14:30:00Z,30.2513,-88.0778,9.68,2.41,114.5,-9999.0,'1111122,1111122,1111122' 
DISL,ioos:station:DISL:DISL:1,2013-09-04T15:00:00Z,30.2513,-88.0778,9.68,2.03,118.1,-9999.0,'1111122,1111122,1111122' 
DISL,ioos:station:DISL:DISL:1,2013-09-04T15:30:00Z,30.2513,-88.0778,9.68,2.37,135.9,-9999.0,'1111122,1111122,1111122' 
DISL,ioos:station:DISL:DISL:1,2013-09-04T16:00:00Z,30.2513,-88.0778,9.68,1.93,148.0,-9999.0,'1111122,1111122,1111122' 
DISL,ioos:station:DISL:DISL:1,2013-09-04T16:30:00Z,30.2513,-88.0778,9.68,2.74,151.3,-9999.0,'1111122,1111122,1111122' 
DISL,ioos:station:DISL:DISL:1,2013-09-04T17:00:00Z,30.2513,-88.0778,9.68,2.46,176.9,-9999.0,'1111122,1111122,1111122' 
DISL,ioos:station:DISL:DISL:1,2013-09-04T17:30:00Z,30.2513,-88.0778,9.68,2.26,186.4,-9999.0,'1111122,1111122,1111122' 
DISL,ioos:station:DISL:DISL:1,2013-09-04T18:00:00Z,30.2513,-88.0778,9.68,2.29,178.6,-9999.0,'1111122,1111122,1111122' 
DISL,ioos:station:DISL:DISL:1,2013-09-04T18:30:00Z,30.2513,-88.0778,9.68,2.7,186.9,-9999.0,'1111122,1111122,1111122' 
DISL,ioos:station:DISL:DISL:1,2013-09-04T19:00:00Z,30.2513,-88.0778,9.68,2.55,191.3,-9999.0,'1111122,1111122,1111122' 
DISL,ioos:station:DISL:DISL:1,2013-09-04T19:30:00Z,30.2513,-88.0778,9.68,3.03,185.3,-9999.0,'1111122,1111122,1111122' 
DISL,ioos:station:DISL:DISL:1,2013-09-04T20:00:00Z,30.2513,-88.0778,9.68,3.81,182.0,-9999.0,'1111122,1111122,1111122' 
DISL,ioos:station:DISL:DISL:1,2013-09-04T20:30:00Z,30.2513,-88.0778,9.68,3.91,181.9,-9999.0,'1111122,1111122,1111122' 
DISL,ioos:station:DISL:DISL:1,2013-09-04T21:00:00Z,30.2513,-88.0778,9.68,3.19,192.3,-9999.0,'1111122,1111122,1111122' 
DISL,ioos:station:DISL:DISL:1,2013-09-04T21:30:00Z,30.2513,-88.0778,9.68,3.23,200.0,-9999.0,'1111122,1111122,1111122' 
DISL,ioos:station:DISL:DISL:1,2013-09-04T22:00:00Z,30.2513,-88.0778,9.68,2.93,200.6,-9999.0,'1111122,1111122,1111122' 
DISL,ioos:station:DISL:DISL:1,2013-09-04T22:30:00Z,30.2513,-88.0778,9.68,2.69,203.9,-9999.0,'1111122,1111122,1111122' 
DISL,ioos:station:DISL:DISL:1,2013-09-04T23:00:00Z,30.2513,-88.0778,9.68,2.4,196.9,-9999.0,'1111122,1111122,1111122' 
DISL,ioos:station:DISL:DISL:1,2013-09-04T23:30:00Z,30.2513,-88.0778,9.68,2.43,193.2,-9999.0,'1111122,1111122,1111122' 
DISL,ioos:station:DISL:DISL:1,2013-09-05T00:00:00Z,30.2513,-88.0778,9.68,2.06,205.9,-9999.0,'1111122,1111122,1111122' 
DISL,ioos:station:DISL:DISL:1,2013-09-05T00:30:00Z,30.2513,-88.0778,9.68,2.2,195.5,-9999.0,'1111122,1111122,1111122' 
DISL,ioos:station:DISL:DISL:1,2013-09-05T01:00:00Z,30.2513,-88.0778,9.68,2.32,213.3,-9999.0,'1111122,1111122,1111122' 
DISL,ioos:station:DISL:DISL:1,2013-09-05T01:30:00Z,30.2513,-88.0778,9.68,1.94,188.6,-9999.0,'1111122,1111122,1111122' 
DISL,ioos:station:DISL:DISL:1,2013-09-05T02:00:00Z,30.2513,-88.0778,9.68,2.39,211.5,-9999.0,'1111122,1111122,1111122' 
DISL,ioos:station:DISL:DISL:1,2013-09-05T02:30:00Z,30.2513,-88.0778,9.68,2.53,191.9,-9999.0,'1111122,1111122,1111122' 
DISL,ioos:station:DISL:DISL:1,2013-09-05T03:00:00Z,30.2513,-88.0778,9.68,2.18,204.5,-9999.0,'1111122,1111122,1111122' 
DISL,ioos:station:DISL:DISL:1,2013-09-05T03:30:00Z,30.2513,-88.0778,9.68,2.03,201.3,-9999.0,'1111122,1111122,1111122' 
DISL,ioos:station:DISL:DISL:1,2013-09-05T04:00:00Z,30.2513,-88.0778,9.68,1.25,183.2,-9999.0,'1111122,1111122,1111122' 